Weather History for Flagstaff, AZ

Change the Weather History Date:

Sunday, March 30, 2014

  Actual Average Record
Temperature  
Mean Temperature 42 °F 40 °F  
Max Temperature 56 °F 54 °F 70 °F (1971)
Min Temperature 27 °F 25 °F 1 °F (1998)
Degree Days  
Heating Degree Days 23 26  
Month to date heating degree days 733 842  
Since 1 July heating degree days 5334 5681  
Cooling Degree Days 0 0  
Month to date cooling degree days 0 0  
Year to date cooling degree days 0 0  
Moisture  
Dew Point 16 °F    
Average Humidity 34    
Maximum Humidity 52    
Minimum Humidity 16    
Precipitation  
Precipitation 0.00 in 0.05 in 0.84 in (1970)
Month to date precipitation 1.24 2.07  
Year to date precipitation 1.84 6.28  
Snow  
Snow 0.00 in 0.40 in 8.90 in (1970)
Month to date snowfall 1.4 20.3  
Since 1 July snowfall 34.9 93.5  
Snow Depth 0.00 in    
Sea Level Pressure  
Sea Level Pressure 29.83 in    
Wind  
Wind Speed 14 mph (SW)    
Max Wind Speed 48 mph    
Max Gust Speed 63 mph    
Visibility 10 miles    
Events      
T = Trace of Precipitation, MM = Missing Value Source: NWS Daily Summary

Daily Weather History Graph

Daily Weather History Graph

Search for Another Location

Airport:

Trip Planner

Search our weather history database for the weather conditions in past years. The results will help you decide how hot, cold, wet, or windy it might be!

Date:

Astronomy

Mar. 30, 2014 Rise Set
Actual Time 6:16 AM MST 6:46 PM MST
Civil Twilight 5:50 AM MST 7:12 PM MST
Nautical Twilight 5:20 AM MST 7:42 PM MST
Astronomical Twilight 4:50 AM MST 8:12 PM MST
Moon 6:04 AM MST (3/30) 7:01 PM MST (3/30)
Length of Visible Light 13h 21m
Length of Day
12h 30m
New Moon, 0% of the Moon is Illuminated
Mar 30
New Moon
Apr 7
First Quarter
Apr 15
Full
Apr 22
Last Quarter
Apr 28
New

Hourly Weather History & Observations

Time (MST) Temp. Windchill Dew Point Humidity Pressure Visibility Wind Dir Wind Speed Gust Speed Precip Events Conditions
12:57 AM 34.0 °F - 18.0 °F 52% 29.93 in 10.0 mi Calm Calm - N/A   Clear
1:57 AM 37.0 °F 32.4 °F 18.0 °F 46% 29.89 in 10.0 mi SW 5.8 mph - N/A   Clear
2:57 AM 37.0 °F 33.3 °F 19.0 °F 48% 29.86 in 10.0 mi SW 4.6 mph - N/A   Clear
3:57 AM 37.0 °F 32.4 °F 19.9 °F 50% 29.84 in 10.0 mi SW 5.8 mph - N/A   Clear
4:57 AM 37.0 °F 33.3 °F 19.0 °F 48% 29.82 in 10.0 mi WSW 4.6 mph - N/A   Clear
5:57 AM 36.0 °F 33.3 °F 19.0 °F 50% 29.83 in 10.0 mi WSW 3.5 mph - N/A   Clear
6:57 AM 39.9 °F 33.4 °F 21.0 °F 47% 29.82 in 10.0 mi SW 10.4 mph - N/A   Clear
7:57 AM 45.0 °F 38.9 °F 21.0 °F 39% 29.81 in 10.0 mi SSW 12.7 mph - N/A   Clear
8:57 AM 48.0 °F - 21.0 °F 34% 29.81 in 10.0 mi SW 17.3 mph - N/A   Clear
9:57 AM 48.0 °F - 21.0 °F 34% 29.82 in 10.0 mi SW 19.6 mph 29.9 mph N/A   Overcast
10:57 AM 46.9 °F - 21.9 °F 37% 29.77 in 10.0 mi South 13.8 mph 26.5 mph N/A   Overcast
11:57 AM 51.1 °F - 23.0 °F 33% 29.73 in 10.0 mi SSW 21.9 mph 38.0 mph N/A   Partly Cloudy
12:57 PM 55.9 °F - 15.1 °F 20% 29.72 in 10.0 mi SW 44.9 mph 58.7 mph N/A   Clear
1:57 PM 55.9 °F - 10.0 °F 16% 29.71 in 10.0 mi SW 38.0 mph 48.3 mph N/A   Clear
2:57 PM 53.1 °F - 14.0 °F 21% 29.75 in 10.0 mi WSW 32.2 mph 49.5 mph N/A   Clear
3:57 PM 52.0 °F - 15.1 °F 23% 29.77 in 10.0 mi SW 31.1 mph 39.1 mph N/A   Clear
4:57 PM 51.1 °F - 16.0 °F 25% 29.80 in 10.0 mi SW 19.6 mph 27.6 mph N/A   Clear
5:57 PM 48.9 °F - 9.0 °F 20% 29.83 in 10.0 mi WSW 18.4 mph 29.9 mph N/A   Clear
6:57 PM 45.0 °F 40.1 °F 10.0 °F 24% 29.87 in 10.0 mi West 9.2 mph 17.3 mph N/A   Clear
7:57 PM 42.1 °F 38.4 °F 12.0 °F 29% 29.88 in 10.0 mi West 5.8 mph - N/A   Clear
8:57 PM 36.0 °F 33.3 °F 12.9 °F 39% 29.91 in 10.0 mi SW 3.5 mph - N/A   Clear
9:57 PM 30.0 °F 25.2 °F 12.9 °F 49% 29.94 in 10.0 mi SW 4.6 mph - N/A   Clear
10:57 PM 35.1 °F - 14.0 °F 42% 29.92 in 10.0 mi Calm Calm - N/A   Clear
11:57 PM 27.0 °F 23.0 °F 12.9 °F 56% 29.95 in 10.0 mi North 3.5 mph - N/A   Clear